Theta_e
332 334 332 332 333 332 331 331 326 321 325 330 328 336 334 335 335 337 337 332 328 324 321 321 323 324 327 328 329 331 331 332 333 334 335 336 337 340
326 329 330 329 331 333 332 328 327 324 323 330 331 333 334 333 334 334 334 329 327 324 323 322 321 322 323 323 324 326 327 327 327 328 329 330 332 334
326 326 326 329 326 327 329 331 325 324 320 325 332 335 334 333 333 334 335 335 335 322 323 321 319 319 320 320 321 322 323 323 323 324 325 326 328 330
320 322 321 321 326 327 326 328 327 325 321 318 327 331 334 334 333 333 333 333 335 326 321 320 318 318 318 318 317 317 317 317 318 320 321 323 325 327
319 320 320 321 322 323 325 324 324 326 323 320 321 330 331 330 331 333 333 334 335 328 320 319 318 317 317 316 315 314 312 311 311 312 315 317 319 321
322 322 320 320 320 322 323 324 325 322 321 320 319 325 327 330 330 329 328 332 330 331 327 326 324 319 316 315 315 315 311 309 308 308 308 309 310 313
323 320 323 321 318 319 319 322 323 321 319 319 319 322 321 326 327 331 327 328 332 335 334 334 335 335 332 317 324 317 313 309 308 307 307 306 305 306
320 320 320 318 318 314 313 314 319 321 318 318 319 318 320 328 329 329 328 327 323 331 330 329 331 328 329 330 319 313 309 308 308 308 308 306 305 305
317 317 316 315 314 318 313 311 311 309 313 320 320 324 326 329 330 329 328 326 323 326 326 321 327 324 331 328 312 310 308 306 305 306 305 304 303 302
315 315 315 314 313 313 314 316 319 320 318 321 321 326 330 331 328 327 322 323 324 325 331 317 329 328 332 331 309 307 306 305 304 304 303 303 301 301
311 313 311 311 304 301 311 310 315 319 313 308 310 309 306 306 315 321 321 317 316 319 328 323 325 324 327 328 327 305 304 303 303 302 302 302 300 300
309 310 303 306 300 299 311 311 311 317 319 319 319 311 309 312 306 323 321 315 317 317 325 323 323 323 317 329 329 326 328 303 301 301 301 301 300 313
305 307 308 300 298 297 298 314 314 318 317 322 318 321 320 314 317 323 328 321 319 319 325 327 323 323 321 321 325 329 328 323 316 310 300 300 302 311
304 306 307 298 296 296 297 301 300 303 321 320 316 317 318 316 319 322 326 326 327 326 329 331 325 324 321 319 318 325 322 320 316 311 305 301 300 301
304 303 298 297 296 296 295 298 297 311 317 315 312 316 319 321 325 323 325 326 325 325 326 329 328 327 325 321 319 319 320 317 314 309 305 305 311 307
301 304 303 301 299 305 304 302 308 313 312 314 313 318 321 321 320 321 321 322 323 324 326 329 329 327 321 319 319 319 322 315 307 302 298 297 299 306
303 307 307 307 305 307 310 309 311 314 315 315 317 317 319 320 320 324 324 324 323 323 322 320 323 323 321 318 315 318 316 309 305 299 298 294 295 299
299 305 305 307 308 309 311 310 310 311 314 316 318 319 319 321 321 323 324 324 324 324 322 323 316 317 315 307 304 310 310 304 302 299 297 294 294 297
299 304 307 312 309 310 312 312 309 313 316 317 318 321 322 323 319 321 322 323 323 323 323 323 319 316 316 311 308 297 304 301 298 296 296 296 294 295
302 301 303 313 309 310 312 314 315 315 319 320 323 323 323 322 321 322 322 322 323 323 322 323 323 322 319 316 302 296 294 299 296 292 291 291 290 292
302 303 308 311 312 311 313 315 317 317 317 321 322 322 323 323 321 322 322 305 310 322 320 321 322 299 313 307 297 292 294 294 296 292 291 291 291 291
305 305 309 311 312 313 315 316 320 316 319 320 321 322 323 323 322 322 322 319 320 322 323 322 319 317 315 306 293 291 291 293 295 296 296 296 293 289
304 308 310 311 314 314 315 317 320 320 321 321 322 322 323 322 322 322 323 323 322 323 321 320 315 314 305 299 291 292 291 293 294 293 294 295 295 295
Wind_Speed
9 10 10 9 9 8 8 10 10 11 14 12 7 3 4 4 6 8 10 9 11 12 14 16 13 6 9 9 13 13 10 10 10 9 9 12 8 14
8 10 10 10 10 9 9 8 9 11 14 12 10 5 6 6 6 8 10 10 12 13 15 12 10 9 9 8 11 10 8 12 14 13 12 11 12 13
10 10 12 12 10 10 8 10 8 7 10 12 13 12 11 11 10 10 9 11 10 12 11 11 13 12 10 9 12 12 14 14 12 11 10 11 12 13
13 12 13 10 12 12 10 12 9 9 7 11 14 13 12 10 11 10 10 11 11 11 14 14 12 12 13 13 12 13 12 13 9 9 10 11 13 14
16 15 14 13 12 11 12 9 8 8 8 8 11 13 9 7 7 8 9 12 9 7 10 8 10 10 10 11 11 12 12 12 8 8 11 12 12 13
16 16 15 15 14 14 12 13 9 9 9 9 8 11 9 8 6 7 6 8 6 7 2 1 6 8 7 10 9 11 11 11 9 9 13 13 12 11
18 17 16 16 14 13 11 11 10 10 8 8 9 8 8 8 9 6 6 5 5 3 4 4 5 5 6 9 9 13 12 11 12 11 12 12 10 9
19 18 18 14 14 15 14 15 16 11 11 8 7 8 9 11 8 7 6 6 6 3 4 5 4 5 5 6 3 1 7 9 10 10 10 9 8 7
18 16 16 14 11 13 12 15 16 17 17 10 11 13 14 12 10 8 6 5 3 5 4 4 3 4 3 4 4 4 7 8 9 8 8 8 7 8
18 16 15 13 14 14 14 15 13 12 14 14 15 14 13 7 10 5 4 4 3 4 3 4 3 3 3 2 4 4 2 4 6 6 7 7 9 10
17 16 16 17 15 11 17 19 17 14 9 13 14 11 5 9 9 7 8 7 8 4 4 4 3 2 1 3 3 6 6 5 5 5 8 9 9 11
18 18 14 16 11 12 17 18 18 14 10 8 10 6 8 8 12 10 10 11 7 5 5 4 4 1 2 3 3 2 3 8 5 2 7 11 14 7
12 12 11 12 16 17 18 18 16 14 12 10 7 7 7 6 6 6 8 7 7 4 8 5 4 3 2 1 1 2 3 2 3 4 3 11 10 7
11 10 10 11 13 15 14 22 14 10 11 8 6 6 10 12 12 8 7 5 5 6 8 5 2 3 2 2 2 2 2 3 4 3 3 5 7 12
10 9 10 10 10 7 14 14 14 10 10 8 8 10 12 11 11 9 7 5 5 5 5 6 4 4 2 3 3 3 3 2 4 5 5 4 0 6
9 11 12 12 9 9 5 6 8 10 9 9 9 10 10 10 9 8 8 6 5 5 5 5 5 4 3 4 4 6 3 3 4 5 5 4 4 4
8 9 7 9 6 6 5 5 6 9 11 9 10 12 11 11 9 8 7 8 6 7 7 5 4 4 2 2 4 4 3 3 6 6 4 4 6 4
8 9 7 8 7 8 7 4 2 6 6 9 11 12 12 10 10 9 8 7 7 6 5 5 4 3 2 4 9 5 2 4 6 7 6 6 5 6
6 7 6 9 7 7 8 8 3 4 10 10 10 11 10 9 9 8 7 7 5 5 5 5 5 4 4 3 4 17 3 6 9 8 5 4 6 7
7 7 6 5 7 9 7 5 7 6 9 11 10 10 9 10 9 9 8 8 7 6 6 6 5 4 4 3 4 4 9 10 9 11 10 8 9 17
8 7 7 4 6 9 7 7 9 9 8 9 9 8 8 8 8 8 7 5 6 6 6 6 4 6 7 8 5 4 8 16 10 13 14 10 9 7
6 8 5 4 5 7 7 4 6 6 8 8 8 7 8 7 8 8 7 8 7 6 6 7 7 5 3 4 8 8 6 10 15 12 9 5 5 8
3 6 7 5 6 6 4 4 5 7 7 8 8 8 8 8 7 7 7 8 7 7 8 7 5 5 5 5 11 7 11 12 9 8 5 5 8 19
Wind_Direction
251 258 262 268 265 255 256 252 249 260 265 259 263 261 267 269 278 274 266 257 221 204 204 211 216 200 219 224 243 232 228 243 249 253 266 275 265 256
246 249 256 263 263 262 254 248 256 257 261 266 263 270 296 278 266 255 258 264 244 224 213 206 193 195 202 208 235 226 221 236 244 244 254 246 249 261
241 243 253 260 264 263 258 254 245 243 258 268 275 278 277 268 272 256 248 248 251 217 222 213 193 188 197 218 234 241 238 243 243 247 247 254 256 255
246 250 251 255 253 260 262 257 243 236 237 251 264 274 256 269 264 264 255 237 237 182 210 200 192 195 207 226 238 245 250 244 238 245 245 249 256 251
243 245 249 255 260 264 261 255 251 249 233 234 255 267 267 270 274 264 251 233 225 150 200 192 204 209 214 227 226 232 241 243 230 257 259 253 255 264
242 239 244 245 253 260 261 263 250 242 241 236 236 255 251 265 255 246 214 216 194 205 171 40 179 193 201 230 220 221 221 230 228 230 245 249 243 247
241 242 242 245 249 250 261 262 244 245 239 238 230 240 240 237 233 216 217 182 175 187 168 178 187 190 184 209 221 212 220 228 218 221 235 244 247 237
244 241 243 241 242 235 243 251 257 245 239 233 228 226 226 236 239 224 204 191 182 170 187 178 205 213 223 232 177 203 218 234 238 235 241 240 227 206
250 246 241 242 235 258 238 235 249 239 238 247 233 224 227 226 220 200 195 189 181 130 192 209 203 231 217 138 45 255 242 242 227 219 218 211 160 140
249 246 243 249 254 258 263 267 259 240 230 236 243 255 247 240 198 192 135 104 108 133 177 226 161 195 167 130 59 37 6 257 232 209 194 180 152 152
254 239 240 245 253 224 251 256 260 252 236 236 234 243 211 208 190 159 167 173 176 177 181 181 146 201 153 138 136 96 57 13 289 220 192 160 149 134
248 239 221 244 254 222 244 247 246 245 229 218 218 218 211 226 210 196 167 190 164 153 170 196 151 149 164 151 127 43 334 72 41 224 168 144 152 138
238 235 241 215 232 236 222 241 237 246 233 213 194 197 199 178 185 214 179 174 169 131 150 198 160 166 191 217 28 56 24 61 39 72 90 149 180 154
249 249 260 242 228 232 209 228 237 246 244 216 183 186 184 184 174 176 155 126 87 78 143 213 163 190 155 188 248 173 50 57 97 86 63 66 82 93
245 261 271 268 269 247 215 206 207 216 218 195 182 204 192 180 147 142 138 138 123 132 162 188 228 145 220 256 278 274 292 97 84 99 58 29 102 123
243 251 252 254 260 244 168 200 206 198 181 180 176 181 169 151 162 156 156 163 171 147 147 184 192 193 235 267 263 266 258 171 105 86 87 43 20 45
265 239 233 243 229 197 184 180 186 178 182 158 167 174 170 163 151 152 159 171 183 162 157 150 163 194 214 292 260 257 248 128 131 129 100 85 33 51
275 237 225 223 207 199 169 114 160 150 147 145 198 177 163 158 150 160 171 187 172 157 151 144 162 157 129 79 39 257 155 118 127 111 116 105 79 52
236 237 234 223 194 177 157 122 228 231 200 183 191 170 162 154 150 162 178 185 168 156 154 160 174 206 234 280 141 45 123 126 119 95 68 60 111 101
228 229 246 212 159 163 155 176 167 196 185 175 180 162 156 157 165 172 180 173 182 171 161 175 200 226 253 315 126 9 30 130 123 111 99 79 82 93
197 216 232 165 172 178 190 202 170 186 167 169 168 156 161 166 171 178 165 169 185 179 165 165 101 64 102 116 95 63 50 59 96 129 130 112 114 116
191 202 196 168 175 179 156 215 202 158 172 172 159 159 167 170 163 163 164 170 193 178 145 128 144 134 144 95 115 113 112 96 90 79 54 31 147 149
267 168 176 180 176 165 148 223 177 165 170 159 156 159 164 160 162 165 171 170 170 166 156 135 126 83 67 110 122 125 125 131 122 95 51 16 127 103